OneWeb SL0658

operational
NORAD ID: 55819 Int'l Des: 2023-029 Owner: ONEWEBN Country: UK Constellation: oneweb
LEOCIRCULARPOLARONEWEB_TYPE

About OneWeb SL0658

Description loading...

Live Position

Loading 3D Globe...

Upcoming Passes

Altitude History

Altitude vs Time

uPlot chart will show altitude changes over time

Two-Line Element Set

1 55819U 23029Z 26062.15218388 .00000104 00000-0 22868-3 0 9990
2 55819 87.9246 326.0660 0001925 91.5395 268.5958 13.19725437144934
Epoch: Mar 3, 2026 • Age: 17 hours

Current Status

Altitude 1196.7 km
Velocity 7.25 km/s
Sub-Earth Point -27.54°S, 83.98°E
Launch Date Mar 9, 2023
Age 2.9 years
Type internet

Technical Details

Classification Payload
Mass 148.00 kg
Dry Mass 140.00 kg
Total Mass 148.00 kg
Length 1.30 m
Diameter 1.00 m
Span 5.00 m
Shape Trapezoid+2 pan
Manufacturer ONEWUS
Bus Type ARROW
Phase Status In Orbit
Owner/State ONEWEBN/UK

Large Constellations

Loading constellations...